Simultaneous Nadir Overpasses (SNOs) Predictions

Prediction of SNOs between AQUA and NOAA-19 Satellite Orbit:

Table of predicted SNOs for the next 14.0 days since TLE Epoch: 5/24/2019
Index Date (AQUA) Time (AQUA) Lat,Lon (AQUA) SZA (AQUA ) Date (NOAA-19) Time (NOAA-19) Lat,Lon (NOAA-19) SZA (NOAA-19 ) Distance(km) Time Diff (sec)
1 05/25/2019 02:09:59 -80.40, -66.57 118.83 05/25/2019 02:08:58 -80.42, -66.69 118.78 2.99 61
2 05/25/2019 02:59:27 80.43, 100.83 61.21 05/25/2019 02:59:57 80.44, 100.80 61.21 1.04 30
3 05/27/2019 08:33:10 -80.42,-162.57 119.18 05/27/2019 08:33:24 -80.44,-162.45 119.19 2.54 14
4 05/29/2019 14:06:54 80.42, -65.94 60.46 05/29/2019 14:06:49 80.42, -65.97 60.47 0.85 5
5 05/31/2019 19:40:37 -80.41, 30.69 119.88 05/31/2019 19:40:17 -80.43, 30.81 119.87 2.72 20
6 05/31/2019 20:30:05 80.45,-162.03 60.19 05/31/2019 20:31:15 80.42,-161.99 60.14 2.71 70
7 06/03/2019 01:14:21 80.42, 127.19 59.85 06/03/2019 01:13:41 80.41, 127.18 59.86 1.22 40
8 06/03/2019 02:03:48 -80.44, -65.38 120.12 06/03/2019 02:04:44 -80.42, -65.38 120.16 2.36 56
9 06/05/2019 06:48:04 -80.41,-136.15 120.42 06/05/2019 06:47:10 -80.41,-136.06 120.40 1.70 54
10 06/05/2019 07:37:31 80.42, 31.37 59.60 06/05/2019 07:38:06 80.42, 31.45 59.58 1.61 35
11 06/07/2019 12:21:49 80.46, -40.10 59.46 06/07/2019 12:20:36 80.33, -40.77 59.45 19.05 73




NCC Satellite Simultaneous Nadir Overpasses (SNOs) Prediction Service
